EHI
2 6 12 15 15 14 14 15 17 19 21 20 17 13 11 12 10 6 4 3 3 1 1 1 1 0 0 0 0 0 1 1 1 0 0 0 0 0 0 0 0 0 0
2 6 12 16 17 16 15 15 17 19 21 20 18 15 13 11 9 5 3 3 3 2 2 3 3 1 0 0 0 0 0 0 0 0 0 0 0 0 0 0 0 0 0
3 7 12 17 21 20 17 17 17 18 20 20 19 16 13 10 8 6 5 4 3 3 3 4 4 1 0 0 0 0 0 0 0 0 0 0 0 0 0 0 0 0 0
5 8 12 17 22 23 20 18 16 17 18 19 18 15 12 10 8 7 6 5 4 3 3 4 4 2 0 0 0 0 0 0 0 0 0 0 0 0 0 0 0 0 0
6 10 13 16 21 24 23 20 17 16 16 17 16 13 11 11 9 7 5 4 3 3 3 3 4 3 1 0 0 0 0 0 0 0 0 0 0 0 0 0 0 0 0
7 10 13 16 20 24 25 22 19 17 16 16 15 13 11 10 9 7 5 4 3 3 3 3 4 4 1 0 0 0 0 0 0 0 0 0 0 0 0 0 0 0 0
9 11 13 15 19 24 25 23 20 18 16 14 14 13 11 10 10 8 7 5 4 3 3 4 5 3 1 0 0 0 0 0 0 0 0 0 0 0 0 0 0 0 0
11 12 12 13 16 20 22 22 21 18 15 13 12 12 11 10 10 8 7 6 4 3 3 4 5 3 1 0 0 0 0 0 0 0 0 0 0 0 0 0 0 0 0
10 11 12 12 13 15 18 19 19 18 15 14 12 11 9 9 10 8 7 6 4 3 3 4 4 2 0 0 0 0 0 0 0 0 0 0 0 0 0 0 0 0 0
8 9 11 11 11 12 13 14 15 15 14 14 12 9 8 8 9 8 7 6 4 3 3 4 4 2 0 0 0 0 0 0 0 0 0 0 0 0 0 0 0 0 0
6 8 11 11 9 9 10 10 11 11 10 10 10 9 8 7 6 5 5 4 4 3 4 5 5 2 0 0 0 0 0 0 0 0 0 0 0 0 0 0 0 0 0
6 7 9 10 8 7 8 8 8 8 7 7 8 9 8 6 4 3 3 3 3 3 3 5 4 1 0 0 0 0 0 0 0 0 0 0 0 0 0 0 0 0 0
6 7 8 8 6 6 6 6 6 6 6 7 8 8 6 4 3 3 3 3 3 3 2 2 2 0 0 0 0 0 0 0 0 0 0 0 0 0 0 0 0 0 0
6 6 6 6 5 5 6 6 6 6 6 6 6 5 4 3 4 3 3 3 3 2 1 0 0 0 0 0 0 0 0 0 0 0 0 0 0 0 0 0 0 0 0
4 5 5 5 4 4 6 7 7 6 6 6 4 3 3 4 4 4 3 3 3 2 1 0 0 0 0 0 0 0 0 0 0 0 0 0 0 0 0 0 0 0 0
4 5 5 4 3 3 4 6 7 6 6 6 4 3 3 3 3 3 3 3 3 2 0 0 0 0 0 0 0 0 0 0 0 0 0 0 0 0 0 0 0 0 0
2 4 5 4 3 1 2 4 6 6 6 6 4 3 3 3 2 2 2 2 2 2 1 0 0 0 0 0 0 0 0 0 0 0 0 0 0 0 0 0 0 0 0
1 2 4 4 3 1 1 3 4 5 6 6 5 4 2 1 1 0 1 1 1 2 1 0 0 0 0 0 0 0 0 0 0 0 0 0 0 0 0 0 0 0 0
2 1 2 3 2 1 1 2 3 4 5 5 5 4 2 0 0 0 0 0 1 1 1 0 0 0 0 0 0 0 0 0 0 0 0 0 0 0 0 0 0 0 0
3 2 1 1 1 0 1 1 1 1 2 3 4 4 2 1 0 0 0 0 0 0 0 0 0 0 0 0 0 0 0 0 0 0 0 0 0 0 0 0 0 0 0
3 3 2 1 0 0 0 0 0 0 1 1 2 3 2 1 0 0 0 0 0 0 0 0 0 0 0 0 0 0 0 0 0 0 0 0 0 0 0 0 0 0 0
3 3 3 2 1 0 0 1 1 0 0 1 2 2 1 0 0 0 0 0 0 0 0 0 0 0 0 0 0 0 0 0 0 0 0 0 0 0 0 0 0 0 0
2 3 3 3 2 1 1 2 2 1 0 1 1 1 0 0 0 0 0 0 0 0 0 0 0 0 0 0 0 0 0 0 0 0 0 0 0 0 0 0 0 0 0
1 2 3 3 3 3 3 3 2 1 0 0 0 0 0 0 0 0 0 0 0 0 0 0 0 0 0 0 0 0 0 0 0 0 0 0 0 0 0 0 0 0 0
0 1 2 3 3 3 3 3 2 1 0 0 0 0 0 0 0 0 0 0 0 0 0 0 0 0 0 0 0 0 0 0 0 0 0 0 0 0 0 0 0 0 0
0 0 1 3 3 3 3 3 2 1 0 0 0 0 0 0 0 0 0 0 0 0 0 0 0 0 0 0 0 0 0 0 0 0 0 0 0 0 0 0 0 0 0
Wind_Speed
1 1 4 6 7 7 6 7 8 8 8 9 9 9 8 8 8 8 8 8 8 8 9 10 10 11 11 12 12 12 12 12 12 12 12 11 11 12 12 12 11 7 13
2 2 5 6 7 7 6 6 7 7 8 8 8 8 8 8 8 8 8 8 8 9 9 10 10 11 11 11 11 11 12 12 11 11 11 10 10 11 11 11 10 8 12
2 2 4 6 7 7 6 6 6 7 7 7 7 8 7 8 8 8 8 8 8 8 9 9 10 10 10 11 11 11 11 11 11 11 10 5 6 10 11 11 11 12 12
2 2 3 5 7 7 6 6 6 6 6 7 7 7 7 7 7 7 7 7 8 8 9 9 9 9 10 10 10 10 10 10 11 10 5 4 4 9 11 11 12 12 12
2 1 2 5 6 7 6 6 6 5 6 6 6 6 6 6 6 6 7 7 8 8 9 9 9 9 9 9 10 10 10 10 10 8 4 4 3 8 10 10 10 11 10
2 2 1 4 6 6 6 6 5 5 5 5 6 6 6 6 6 6 6 6 7 8 8 8 8 9 9 9 9 9 10 10 8 4 4 3 3 7 9 9 9 9 9
1 1 1 3 5 6 6 5 4 5 5 4 5 5 5 5 5 5 5 6 6 7 7 7 8 8 8 8 8 9 9 9 5 4 3 3 3 7 8 8 8 8 8
1 1 1 3 5 5 5 5 4 4 4 4 3 4 5 5 5 5 5 5 5 6 6 7 7 8 8 8 8 8 8 7 5 4 3 2 4 6 7 7 7 7 7
2 2 1 1 2 4 4 3 4 3 4 4 3 3 4 4 5 5 5 4 4 5 5 6 7 7 7 7 7 7 7 7 4 2 2 1 4 5 6 7 6 6 6
3 2 2 1 1 2 2 3 3 3 3 4 4 4 4 4 4 4 4 4 4 5 5 6 6 6 7 7 7 6 7 6 3 2 2 1 4 5 6 6 6 6 6
2 2 2 1 1 1 1 2 2 3 3 3 3 4 4 2 2 2 3 3 4 4 4 5 6 6 6 6 6 7 6 2 2 2 1 2 3 5 5 6 6 6 6
1 1 1 1 1 1 1 1 1 1 2 2 2 2 2 2 2 2 3 3 3 4 4 5 6 6 5 3 4 5 2 2 2 1 1 3 3 4 5 5 5 5 6
2 1 1 0 1 1 1 1 1 1 1 2 2 2 2 2 2 2 1 2 2 3 3 3 3 3 3 2 2 2 2 2 1 1 2 4 3 3 4 4 4 4 5
1 2 1 0 0 1 1 1 1 1 1 1 1 2 2 1 1 1 1 1 1 1 2 2 2 2 3 3 3 3 2 2 1 1 2 4 3 3 3 3 3 4 4
2 2 2 0 1 0 1 1 1 1 1 2 2 2 2 2 1 1 1 1 2 1 2 2 2 2 2 3 2 3 3 2 2 2 2 5 5 4 3 2 3 3 3
3 3 2 1 1 1 1 1 1 1 1 2 2 2 2 2 2 2 2 2 2 1 1 2 2 2 2 2 2 2 2 2 1 2 2 3 5 5 4 3 3 3 3
3 3 2 1 1 1 1 1 1 1 1 2 2 2 2 2 2 2 2 2 1 1 2 2 3 2 2 3 3 2 2 2 2 2 2 2 2 5 5 4 4 3 3
2 2 2 1 1 2 2 1 1 1 2 1 1 2 2 2 2 3 2 2 1 2 2 2 2 3 2 2 2 1 1 1 2 1 2 2 2 2 4 6 5 4 3
3 2 2 1 2 2 2 1 1 1 1 1 1 2 2 2 2 3 2 2 2 2 2 2 2 2 2 2 1 2 1 1 1 1 1 2 2 2 2 4 6 6 5
3 2 1 2 2 1 1 1 1 1 1 1 1 1 2 2 3 3 2 3 3 2 2 2 2 2 2 2 2 2 2 1 1 1 1 1 2 2 2 3 3 4 6
2 1 1 2 2 1 1 1 2 2 2 1 1 2 2 2 3 3 2 3 3 3 3 3 3 3 2 2 2 2 2 1 1 1 1 1 2 2 2 2 2 2 2
2 2 2 2 2 2 2 2 2 2 1 2 1 1 2 2 2 3 3 3 3 3 3 3 3 2 1 1 2 2 1 1 1 1 0 0 1 1 1 2 2 2 2
3 3 3 3 3 3 2 1 1 1 0 1 1 1 1 2 3 2 3 3 3 3 4 4 3 3 2 0 1 2 2 1 1 1 1 0 0 0 0 1 1 1 1
4 3 3 3 2 2 2 2 3 2 2 3 2 2 2 2 3 3 3 3 3 3 3 4 3 2 3 2 0 0 1 2 1 1 1 1 0 0 1 1 1 1 1
3 2 2 2 2 2 2 3 4 3 2 1 1 2 2 2 2 3 3 3 3 2 3 3 3 3 3 3 2 1 1 1 1 1 2 2 1 1 1 1 1 1 1
3 2 1 2 2 1 1 2 4 4 3 2 2 2 2 1 2 3 3 3 3 2 3 3 3 3 3 2 2 2 2 2 2 1 2 2 2 2 1 1 1 1 1
Wind_Direction
264 231 161 139 128 120 117 115 111 107 105 104 103 105 110 112 110 110 106 103 101 100 99 97 97 94 90 86 83 80 79 78 76 74 73 74 75 75 74 72 66 59 63
161 174 150 140 132 124 116 114 112 109 106 105 105 104 105 111 111 108 108 108 108 106 103 98 94 91 89 87 85 82 80 79 77 71 68 69 72 77 79 76 72 71 69
120 151 152 142 135 129 122 112 110 111 110 108 106 105 106 108 112 111 108 109 111 108 104 100 94 91 90 90 87 84 82 80 77 71 63 48 63 76 80 77 76 74 71
111 126 146 143 138 133 128 122 112 115 117 114 112 110 110 110 110 110 111 112 113 110 105 101 97 93 91 91 90 88 84 80 76 69 50 38 48 75 78 75 74 75 74
73 85 151 141 140 134 132 127 121 116 121 123 122 117 115 112 110 110 107 110 114 112 107 104 101 97 95 94 92 89 86 80 73 63 47 39 44 75 76 74 72 73 75
58 44 125 131 138 133 130 128 121 120 116 122 124 123 122 117 112 106 105 104 109 114 115 112 108 104 102 98 94 92 88 82 69 54 45 37 40 77 79 78 75 75 75
60 37 69 129 134 132 130 128 129 126 121 115 127 128 125 123 114 108 108 105 106 110 118 118 112 108 107 105 100 96 93 85 70 54 41 34 59 81 84 81 79 78 76
85 64 77 135 131 129 132 131 130 132 130 124 120 128 125 124 118 111 111 111 110 113 112 116 115 110 108 107 104 100 94 85 72 56 39 36 78 83 84 85 82 80 76
44 52 37 111 130 129 126 134 133 125 121 118 109 106 116 121 122 118 109 112 118 119 120 117 116 112 111 108 104 98 89 80 69 49 33 32 79 80 81 82 79 76 73
36 41 36 56 96 117 132 117 118 121 115 107 94 79 84 104 109 109 102 101 109 122 124 123 111 112 109 106 101 94 87 77 60 46 26 55 75 80 79 79 76 73 69
13 18 26 36 68 87 113 101 106 104 98 97 94 81 73 83 99 97 85 91 95 106 121 120 116 105 103 98 98 92 83 68 61 40 18 61 77 82 77 76 73 68 68
300 320 5 41 64 69 66 75 80 87 93 87 89 91 82 74 87 78 82 87 90 88 98 110 104 93 87 84 88 83 75 68 57 31 24 49 74 81 77 74 72 69 67
251 271 310 35 79 104 90 90 81 92 99 94 93 88 87 74 82 76 79 69 72 72 65 76 75 72 75 87 89 84 81 72 48 19 23 42 58 78 82 76 77 75 73
278 273 279 354 83 130 129 135 121 119 124 112 112 106 102 94 82 86 93 83 72 67 70 66 75 78 76 80 96 93 82 72 50 23 21 36 36 57 73 80 83 81 76
266 277 278 253 172 148 136 154 130 149 155 146 136 128 117 120 121 113 105 97 78 74 87 89 84 92 89 77 87 96 87 68 52 37 15 29 30 31 38 65 79 79 74
284 271 274 270 226 167 159 172 173 173 166 150 151 143 138 139 140 133 120 108 98 93 99 108 98 98 99 88 82 92 100 99 69 53 35 21 27 27 25 39 52 62 61
282 282 265 246 234 199 193 194 181 182 161 163 168 157 152 148 148 148 137 125 116 108 102 101 89 86 86 84 77 83 97 97 89 62 45 35 19 25 30 33 36 47 50
279 278 278 265 249 231 220 200 189 189 161 166 172 164 158 148 147 143 141 140 126 117 113 118 113 95 82 87 83 62 74 86 83 71 53 45 38 22 25 33 30 30 29
257 253 273 260 241 244 233 200 181 185 169 163 159 167 159 148 140 143 149 143 125 113 106 110 105 106 104 85 88 67 46 66 80 77 60 49 48 42 35 31 32 24 22
258 253 256 266 245 242 236 183 170 188 185 165 174 177 165 156 143 139 147 141 132 126 111 107 109 93 109 103 83 62 33 23 60 74 72 53 52 48 43 39 27 14 21
279 291 267 260 241 201 218 206 195 218 214 189 192 178 162 159 148 148 142 151 151 150 151 142 123 109 94 90 76 51 21 19 53 53 51 62 57 44 46 42 32 19 4
275 279 271 255 236 214 221 219 209 199 204 197 188 175 161 154 159 163 156 162 162 151 145 146 129 124 109 107 112 102 19 340 349 355 17 81 56 39 44 40 40 30 14
269 270 268 261 248 229 216 199 132 110 113 180 190 192 182 168 169 167 169 162 160 159 161 166 161 147 155 168 124 136 154 217 317 313 284 297 331 36 13 22 34 11 8
264 263 265 261 253 237 202 187 176 191 205 214 200 198 191 183 174 170 172 167 160 163 169 177 175 168 158 172 155 96 152 157 173 296 311 287 312 297 286 357 352 340 346
278 267 262 265 260 250 223 202 194 206 210 203 182 188 184 192 186 172 169 174 169 170 177 177 174 172 174 176 171 163 117 89 152 191 267 274 285 254 244 233 252 293 311
319 308 284 276 271 258 242 233 204 204 197 185 196 194 188 192 201 184 165 170 170 170 177 179 178 181 185 170 168 171 168 174 178 189 235 262 267 265 256 237 237 259 276